Regional Weather Roundup
Issued by NWS

Home | Current Version | Previous Version | Graphics & Text | Print | Product List | Glossary On
Versions: 1 2 3 4 5 6 7 8 9 10 11 12 13 14 15 16 17 18 19 20 21 22 23 24 25 26 27 28 29 30 31 32 33 34 35 36 37 38 39 40 41 42 43 44 45 46 47 48 49 50
000
ASUS45 KCYS 210910
RWRWY

WYOMING REGIONAL WEATHER ROUNDUP
NATIONAL WEATHER SERVICE CHEYENNE WY
200 AM MST TUE FEB 21 2017

NOTE:  "FAIR" INDICATES FEW OR NO CLOUDS BELOW 12,000 FEET
WITH NO SIGNIFICANT WEATHER AND/OR OBSTRUCTIONS TO VISIBILITY.

WYZ001-211000-
YELLOWSTONE NATIONAL PARK

CITY           SKY/WX    TMP DP  RH WIND       PRES   REMARKS
LK YELLOWSTONE   N/A     30  30 100 CALM      29.87F
W YELLOWSTONE  NOT AVBL

$$
WYZ002>013-054>058-071-098>099-211000-
NORTHERN WYOMING

CITY           SKY/WX    TMP DP  RH WIND       PRES   REMARKS
JACKSON        CLOUDY    34  32  93 SW8       29.91F WCI  27
CODY           FAIR      45  31  58 VRB6G18   29.79R
GREYBULL       MOCLDY    45  31  58 SE14      29.78F
WORLAND        MOCLDY    43  33  68 SE17      29.82R
SHERIDAN       FAIR      47  29  49 SE16G22   29.74S
BUFFALO        FAIR      47  25  42 VRB6      29.77F
GILLETTE       FAIR      48  32  53 SW30G39   29.77S
HULETT         FAIR      46  32  57 SW17      29.82R
NEWCASTLE      FAIR      46  30  53 E8        29.90R

$$
WYZ014>020-022>026-101>103-211000-
CENTRAL WYOMING

CITY           SKY/WX    TMP DP  RH WIND       PRES   REMARKS
BIG PINEY      CLOUDY    36  33  89 SW18      29.98S WCI  26
PINEDALE       PTSUNNY   34  32  93 S16G23    29.98S WCI  23
DUBOIS         LGT SNOW  32  30  93 CALM      29.87F VSB 1
LANDER         LGT RAIN  45  33  63 S37G46    29.87R
RIVERTON       FAIR      40  32  73 SW16      29.86F WCI  31
CASPER         LGT RAIN  45  31  58 SW33G60   29.90F
DOUGLAS        FAIR      49  30  48 W13       29.90F

$$
WYZ021-027>030-104>119-211000-
SOUTHERN WYOMING

CITY           SKY/WX    TMP DP  RH WIND       PRES   REMARKS
EVANSTON       MOCLDY    38  31  76 SW29      30.03S WCI  26
KEMMERER         N/A     37  32  81 SW21G26   30.02S WCI  27
FORT BRIDGER   FAIR      42  32  68 SW22      30.07R
ROCK SPRINGS   FAIR      39  29  67 SW14      30.03F WCI  31
DIXON            N/A     42  31  65 S21G26    30.17R
RAWLINS          N/A     40  30  67 SW36G49   30.05R WCI  27
SARATOGA       FAIR      39  30  70 SW23G33   30.08R WCI  29
LARAMIE        FAIR      41  23  48 SW30G41   30.03S
CHEYENNE       FAIR      50  19  29 SW24G38   29.98S
TORRINGTON     FAIR      45  18  34 CALM      29.93R
PINE BLUFFS    FAIR      27  18  69 S10G17    29.99F WCI  17

$$



USA.gov is the U.S. government's official web portal to all federal, state and local government web resources and services.